Content
SEND FEEDBACK

Daily
Averages
Monthly
Summary
United States of America

JENNINGS, LOUISIANA


Home > North America > United States > Louisiana
Elevation: 7 meters     Latitude: 30 14N     Longitude: 092 40W

WEATHER
 
SELECT A DAY
Number of Records: 123,113;   Date Range: 1/3/95 - 9/18/14
 
SHARE

PRINT THIS DATA

[ ← Previous Day ]
WEATHER ALMANAC - 2 JULY, 2014
[ Next Day → ]
[ °F ]   °C
Weather ElementAverageHighLow
Temperature27.3 °C34 °C (3:48 pm)24 °C (6:00 am)
Dewpoint22 °C24 °C (2:15 am)19 °C (12:45 pm)
Humidity74.1 %94 % (6:00 am)46 % (12:45 pm)
Barometer1016.9 hPa1018.3 hPa (10:15 pm)1015.9 hPa (1:55 am)
Wind Speed4.3 km/h20.4 km/h (6:45 pm)
Wind Gust33.3 km/h (6:45 pm)
Weather ElementAverage
Visibility15.6 km
Wind DirectionESE (100.8 °)

Weather ElementTotal
Precipitation---
Cooling Degree Days10.7 (Base 18.3)
Growing Degree Days19 (Base 10)
Averaged from 37 records on 2 July, 2014
WEATHER CONDITIONS BREAKOUT
WIND DIRECTION BREAKOUT
WEATHER BY HOUR - 2 JULY, 2014
[ °F ]   °C
Local TimeTemperatureDewpointHumidityBarometerVisibilityWind DirectionWind SpeedGust SpeedPrecipitationEventsConditions
12:35 AM27.1 °C23.6 °C81 %1016.3 hPa16.1 kmWSW (240°)5.6 km/hClear
12:55 AM27.2 °C23.7 °C81 %1016.3 hPa16.1 kmSW (220°)9.3 km/hScattered Clouds
1:15 AM26.7 °C23.6 °C83 %1016.3 hPa16.1 kmSSW (210°)7.4 km/hClear
1:35 AM26.7 °C23.7 °C83 %1016.3 hPa16.1 kmSW (230°)5.6 km/hClear
1:55 AM26.9 °C23.8 °C83 %1015.9 hPa16.1 kmSW (230°)7.4 km/hClear
2:15 AM27 °C24 °C84 %1015.9 hPa16.1 kmWSW (250°)5.6 km/hClear
2:35 AM26.8 °C24 °C85 %1015.9 hPa16.1 kmWSW (250°)5.6 km/hClear
2:55 AM26.7 °C24 °C85 %1015.9 hPa16.1 kmWSW (250°)5.6 km/hClear
3:15 AM26.7 °C24 °C85 %1015.9 hPa16.1 kmSW (230°)5.6 km/hClear
3:35 AM26.4 °C23.7 °C85 %1016.3 hPa16.1 kmNW (310°)5.6 km/hScattered Clouds
3:55 AM25.3 °C23.5 °C90 %1015.9 hPa16.1 kmCalmClear
4:15 AM25.3 °C23.5 °C90 %1015.9 hPa16.1 kmCalmClear
6:00 AM24 °C23 °C94 %1016.3 hPa16.1 kmCalmClear
6:55 AM24 °C23 °C94 %1016.9 hPa9.7 kmCalmClear
7:50 AM26 °C24 °C89 %1016.9 hPa9.7 kmCalmClear
8:51 AM27 °C24 °C84 %1017.3 hPa11.3 kmVariable7.4 km/hScattered Clouds
9:51 AM29 °C23 °C70 %1017.3 hPa16.1 kmVariable5.6 km/hScattered Clouds
10:50 AM30 °C22 °C62 %1017.6 hPa16.1 kmNNW (340°)11.1 km/hScattered Clouds
11:45 AM31 °C22 °C58 %1017.6 hPa16.1 kmCalmScattered Clouds
12:45 PM32 °C19 °C46 %1017.9 hPa16.1 kmCalmScattered Clouds
1:52 PM33 °C21 °C49 %1017.9 hPa16.1 kmCalmScattered Clouds
2:45 PM33 °C20 °C46 %1017.6 hPa16.1 kmCalmScattered Clouds
3:48 PM34 °C21 °C46 %1016.6 hPa16.1 kmSSE (160°)7.4 km/hScattered Clouds
4:45 PM33 °C22 °C52 %1016.6 hPa16.1 kmSSW (200°)11.1 km/hScattered Clouds
5:48 PM33 °C21 °C49 %1015.9 hPa16.1 kmCalmScattered Clouds
6:45 PM29 °C21 °C62 %1016.6 hPa16.1 kmNorth (350°)20.4 km/h33.3 km/hScattered Clouds
8:45 PM26 °C21 °C74 %1016.9 hPa16.1 kmCalmClear
9:15 PM25.7 °C20.4 °C72 %1017.3 hPa16.1 kmNE (50°)7.4 km/hClear
9:35 PM25 °C20.5 °C76 %1017.3 hPa16.1 kmEast (100°)5.6 km/hClear
9:45 PM25 °C21 °C78 %1017.6 hPa16.1 kmCalmClear
9:55 PM25 °C20.8 °C77 %1017.9 hPa16.1 kmCalmClear
10:15 PM25.2 °C19.6 °C71 %1018.3 hPa16.1 kmENE (60°)11.1 km/hClear
10:35 PM25.1 °C19.6 °C71 %1018.3 hPa16.1 kmNE (50°)7.4 km/hClear
10:55 PM24.7 °C20.1 °C75 %1018.3 hPa16.1 kmCalmClear
11:15 PM24.5 °C20.1 °C76 %1018.3 hPa16.1 kmCalmClear
11:35 PM24.5 °C20 °C76 %1017.9 hPa16.1 kmCalmClear
11:55 PM24 °C20.1 °C79 %1017.9 hPa16.1 kmCalmClear
Hourly data recorded from KCWF, located 0 kilometers away from Jennings, Louisiana







STORIES FROM OUR PARTNERS